Year,Month,Day,Hour,Minute,Value (Times are PST for temperature in C)
2017,03,14,09,57,8.60
2017,03,14,09,58,8.60
2017,03,14,09,59,8.60
2017,03,14,10,00,8.60
2017,03,14,10,01,8.70
2017,03,14,10,02,8.70
2017,03,14,10,03,8.70
2017,03,14,10,04,8.70
2017,03,14,10,05,8.60
2017,03,14,10,06,8.60
2017,03,14,10,07,8.70
2017,03,14,10,08,8.70
2017,03,14,10,09,8.60
2017,03,14,10,10,8.70
2017,03,14,10,11,8.60
2017,03,14,10,12,8.60
2017,03,14,10,13,8.60
2017,03,14,10,14,8.70
2017,03,14,10,15,8.60
2017,03,14,10,16,8.70
2017,03,14,10,17,8.70
2017,03,14,10,18,8.70
2017,03,14,10,19,8.70
2017,03,14,10,20,8.70
2017,03,14,10,21,8.70
2017,03,14,10,22,8.70
2017,03,14,10,23,8.70
2017,03,14,10,24,8.70
2017,03,14,10,25,8.70
2017,03,14,10,26,8.70
2017,03,14,10,27,8.70
2017,03,14,10,28,8.70
2017,03,14,10,29,8.70
2017,03,14,10,30,8.70
2017,03,14,10,31,8.70
2017,03,14,10,32,8.70
2017,03,14,10,33,8.70
2017,03,14,10,34,8.70
2017,03,14,10,35,8.70
2017,03,14,10,36,8.70
2017,03,14,10,37,8.80
2017,03,14,10,38,8.80
2017,03,14,10,39,8.70
2017,03,14,10,40,8.70
2017,03,14,10,41,8.70
2017,03,14,10,42,8.70
2017,03,14,10,43,8.70
2017,03,14,10,44,8.70
2017,03,14,10,45,8.70
2017,03,14,10,46,8.70
2017,03,14,10,47,8.70
2017,03,14,10,48,8.70
2017,03,14,10,49,8.70
2017,03,14,10,50,8.70
2017,03,14,10,51,8.70
2017,03,14,10,52,8.70
2017,03,14,10,53,8.70
2017,03,14,10,54,8.60
2017,03,14,10,55,8.60
2017,03,14,10,56,8.60
2017,03,14,10,57,8.60
2017,03,14,10,58,8.60
2017,03,14,10,59,8.60
2017,03,14,11,00,8.60
2017,03,14,11,01,8.60
2017,03,14,11,02,8.60
2017,03,14,11,03,8.60
2017,03,14,11,04,8.60
2017,03,14,11,05,8.60
2017,03,14,11,06,8.60
2017,03,14,11,07,8.60
2017,03,14,11,08,8.60
2017,03,14,11,09,8.60
2017,03,14,11,10,8.60
2017,03,14,11,11,8.60
2017,03,14,11,12,8.60
2017,03,14,11,13,8.70
2017,03,14,11,14,8.70
2017,03,14,11,15,8.70
2017,03,14,11,16,8.70
2017,03,14,11,17,8.70
2017,03,14,11,18,8.70
2017,03,14,11,19,8.70
2017,03,14,11,20,8.80
2017,03,14,11,21,8.80
2017,03,14,11,22,8.80
2017,03,14,11,23,8.80
2017,03,14,11,24,8.90
2017,03,14,11,25,8.90
2017,03,14,11,26,8.90
2017,03,14,11,27,8.90
2017,03,14,11,28,8.90
2017,03,14,11,29,8.90
2017,03,14,11,30,9.00
2017,03,14,11,31,9.00
2017,03,14,11,32,9.10
2017,03,14,11,33,9.10
2017,03,14,11,34,9.10
2017,03,14,11,35,9.10
2017,03,14,11,36,9.20
2017,03,14,11,37,9.20
2017,03,14,11,38,9.20
2017,03,14,11,39,9.20
2017,03,14,11,40,9.20
2017,03,14,11,41,9.20
2017,03,14,11,42,9.30
2017,03,14,11,43,9.30
2017,03,14,11,44,9.40
2017,03,14,11,45,9.40
2017,03,14,11,46,9.50
2017,03,14,11,47,9.50
2017,03,14,11,48,9.60
2017,03,14,11,49,9.60
2017,03,14,11,50,9.60
2017,03,14,11,51,9.70
2017,03,14,11,52,9.70
2017,03,14,11,53,9.80
2017,03,14,11,54,9.70
2017,03,14,11,55,9.80
2017,03,14,11,56,9.80
2017,03,14,11,57,9.80
2017,03,14,11,58,9.90
2017,03,14,11,59,9.90
2017,03,14,12,00,10.00
2017,03,14,12,01,10.10
2017,03,14,12,02,10.20
2017,03,14,12,03,10.30
2017,03,14,12,04,10.30
2017,03,14,12,05,10.30
2017,03,14,12,06,10.40
2017,03,14,12,07,10.40
2017,03,14,12,08,10.50
2017,03,14,12,09,10.60
2017,03,14,12,10,10.70
2017,03,14,12,11,10.80
2017,03,14,12,12,10.80
2017,03,14,12,13,10.80
2017,03,14,12,14,10.80
2017,03,14,12,15,10.80
2017,03,14,12,16,10.90
2017,03,14,12,17,10.90
2017,03,14,12,18,10.90
2017,03,14,12,19,10.90
2017,03,14,12,20,10.90
2017,03,14,12,21,11.00
2017,03,14,12,22,11.00
2017,03,14,12,23,11.00
2017,03,14,12,24,11.10
2017,03,14,12,25,11.20
2017,03,14,12,26,11.40
2017,03,14,12,27,11.40
2017,03,14,12,28,11.50
2017,03,14,12,29,11.60
2017,03,14,12,30,11.60
2017,03,14,12,31,11.70
2017,03,14,12,32,11.70
2017,03,14,12,33,11.70
2017,03,14,12,34,11.60
2017,03,14,12,35,11.60
2017,03,14,12,36,11.60
2017,03,14,12,37,11.60
2017,03,14,12,38,11.60
2017,03,14,12,39,11.60
2017,03,14,12,40,11.70
2017,03,14,12,41,11.70
2017,03,14,12,42,11.80
2017,03,14,12,43,11.80
2017,03,14,12,44,11.80
2017,03,14,12,45,11.80
2017,03,14,12,46,11.90
2017,03,14,12,47,12.00
2017,03,14,12,48,12.00
2017,03,14,12,49,12.00
2017,03,14,12,50,11.90
2017,03,14,12,51,11.90
2017,03,14,12,52,11.90
2017,03,14,12,53,12.00
2017,03,14,12,54,12.10
2017,03,14,12,55,12.10
2017,03,14,12,56,12.10
2017,03,14,12,57,12.10
2017,03,14,12,58,12.20
2017,03,14,12,59,12.20
2017,03,14,13,00,12.30
2017,03,14,13,01,12.30
2017,03,14,13,02,12.40
2017,03,14,13,03,12.40
2017,03,14,13,04,12.50
2017,03,14,13,05,12.50
2017,03,14,13,06,12.60
2017,03,14,13,07,12.70
2017,03,14,13,08,12.70
2017,03,14,13,09,12.80
2017,03,14,13,10,12.70
2017,03,14,13,11,12.80
2017,03,14,13,12,12.80
2017,03,14,13,13,12.80
2017,03,14,13,14,12.80
2017,03,14,13,15,12.70
2017,03,14,13,16,12.70
2017,03,14,13,17,12.70
2017,03,14,13,18,12.70
2017,03,14,13,19,12.70
2017,03,14,13,20,12.80
2017,03,14,13,21,12.80
2017,03,14,13,22,12.90
2017,03,14,13,23,13.00
2017,03,14,13,24,13.10
2017,03,14,13,25,13.20
2017,03,14,13,26,13.20
2017,03,14,13,27,13.20
2017,03,14,13,28,13.20
2017,03,14,13,29,13.20
2017,03,14,13,30,13.10
2017,03,14,13,31,13.00
2017,03,14,13,32,12.90
2017,03,14,13,33,12.90
2017,03,14,13,34,12.90
2017,03,14,13,35,12.90
2017,03,14,13,36,12.90
2017,03,14,13,37,12.90
2017,03,14,13,38,12.90
2017,03,14,13,39,12.90
2017,03,14,13,40,12.90
2017,03,14,13,41,12.90
2017,03,14,13,42,12.90
2017,03,14,13,43,13.00
2017,03,14,13,44,13.00
2017,03,14,13,45,13.00
2017,03,14,13,46,13.00
2017,03,14,13,47,13.10
2017,03,14,13,48,13.10
2017,03,14,13,49,13.10
2017,03,14,13,50,13.10
2017,03,14,13,51,13.20
2017,03,14,13,52,13.20
2017,03,14,13,53,13.30
2017,03,14,13,54,13.30
2017,03,14,13,55,13.30
2017,03,14,13,56,13.30
2017,03,14,13,57,13.30
2017,03,14,13,58,13.20
2017,03,14,13,59,13.20
2017,03,14,14,00,13.20
2017,03,14,14,01,13.20
2017,03,14,14,02,13.10
2017,03,14,14,03,13.10
2017,03,14,14,04,13.00
2017,03,14,14,05,12.90
2017,03,14,14,06,12.90
2017,03,14,14,07,12.80
2017,03,14,14,08,12.80
2017,03,14,14,09,12.80
2017,03,14,14,10,12.80
2017,03,14,14,11,12.80
2017,03,14,14,12,12.70
2017,03,14,14,13,12.70
2017,03,14,14,14,12.70
2017,03,14,14,15,12.60
2017,03,14,14,16,12.60
2017,03,14,14,17,12.60
2017,03,14,14,18,12.60
2017,03,14,14,19,12.60
2017,03,14,14,20,12.60
2017,03,14,14,21,12.60
2017,03,14,14,22,12.60
2017,03,14,14,23,12.70
2017,03,14,14,24,12.70
2017,03,14,14,25,12.70
2017,03,14,14,26,12.70
2017,03,14,14,27,12.70
2017,03,14,14,28,12.80
2017,03,14,14,29,12.80
2017,03,14,14,30,12.80
2017,03,14,14,31,12.80
2017,03,14,14,32,12.80
2017,03,14,14,33,12.80
2017,03,14,14,34,12.80
2017,03,14,14,35,12.90
2017,03,14,14,36,12.90
2017,03,14,14,37,12.90
2017,03,14,14,38,13.00
2017,03,14,14,39,13.00
2017,03,14,14,40,13.10
2017,03,14,14,41,13.20
2017,03,14,14,42,13.20
2017,03,14,14,43,13.30
2017,03,14,14,44,13.30
2017,03,14,14,45,13.30
2017,03,14,14,46,13.40
2017,03,14,14,47,13.40
2017,03,14,14,48,13.40
2017,03,14,14,49,13.50
2017,03,14,14,50,13.50
2017,03,14,14,51,13.50
2017,03,14,14,52,13.60
2017,03,14,14,53,13.60
2017,03,14,14,54,13.60
2017,03,14,14,55,13.70
2017,03,14,14,56,13.60
2017,03,14,14,57,13.60
2017,03,14,14,58,13.50
2017,03,14,14,59,13.50
2017,03,14,15,00,13.40
2017,03,14,15,01,13.30
2017,03,14,15,02,13.30
2017,03,14,15,03,13.20
2017,03,14,15,04,13.20
2017,03,14,15,05,13.20
2017,03,14,15,06,13.20
2017,03,14,15,07,13.10
2017,03,14,15,08,13.20
2017,03,14,15,09,13.20
2017,03,14,15,10,13.20
2017,03,14,15,11,13.20
2017,03,14,15,12,13.20
2017,03,14,15,13,13.30
2017,03,14,15,14,13.30
2017,03,14,15,15,13.30
2017,03,14,15,16,13.30
2017,03,14,15,17,13.40
2017,03,14,15,18,13.40
2017,03,14,15,19,13.50
2017,03,14,15,20,13.60
2017,03,14,15,21,13.60
2017,03,14,15,22,13.60
2017,03,14,15,23,13.60
2017,03,14,15,24,13.70
2017,03,14,15,25,13.70
2017,03,14,15,26,13.70
2017,03,14,15,27,13.70
2017,03,14,15,28,13.70
2017,03,14,15,29,13.70
2017,03,14,15,30,13.80
2017,03,14,15,31,13.80
2017,03,14,15,32,13.80
2017,03,14,15,33,13.80
2017,03,14,15,34,13.80
2017,03,14,15,35,13.80
2017,03,14,15,36,13.90
2017,03,14,15,37,13.90
2017,03,14,15,38,13.90
2017,03,14,15,39,13.90
2017,03,14,15,40,13.80
2017,03,14,15,41,13.90
2017,03,14,15,42,13.90
2017,03,14,15,43,13.80
2017,03,14,15,44,13.90
2017,03,14,15,45,13.90
2017,03,14,15,46,13.80
2017,03,14,15,47,13.80
2017,03,14,15,48,13.80
2017,03,14,15,49,13.70
2017,03,14,15,50,13.70
2017,03,14,15,51,13.70
2017,03,14,15,52,13.70
2017,03,14,15,53,13.70
2017,03,14,15,54,13.60
2017,03,14,15,55,13.60
2017,03,14,15,56,13.60
2017,03,14,15,57,13.60
2017,03,14,15,58,13.70
2017,03,14,15,59,13.70
2017,03,14,16,00,13.70
2017,03,14,16,01,13.70
2017,03,14,16,02,13.70
2017,03,14,16,03,13.70
2017,03,14,16,04,13.80
2017,03,14,16,05,13.80
2017,03,14,16,06,13.80
2017,03,14,16,07,13.80
2017,03,14,16,08,13.80
2017,03,14,16,09,13.80
2017,03,14,16,10,13.80
2017,03,14,16,11,13.80
2017,03,14,16,12,13.80
2017,03,14,16,13,13.80
2017,03,14,16,14,13.80
2017,03,14,16,15,13.80
2017,03,14,16,16,13.80
2017,03,14,16,17,13.80
2017,03,14,16,18,13.90
2017,03,14,16,19,13.90
2017,03,14,16,20,13.90
2017,03,14,16,21,13.90
2017,03,14,16,22,13.90
2017,03,14,16,23,13.90
2017,03,14,16,24,14.00
2017,03,14,16,25,14.00
2017,03,14,16,26,14.00
2017,03,14,16,27,14.00
2017,03,14,16,28,14.10
2017,03,14,16,29,14.10
2017,03,14,16,30,14.10
2017,03,14,16,31,14.10
2017,03,14,16,32,14.10
2017,03,14,16,33,14.20
2017,03,14,16,34,14.20
2017,03,14,16,35,14.20
2017,03,14,16,36,14.20
2017,03,14,16,37,14.20
2017,03,14,16,38,14.20
2017,03,14,16,39,14.20
2017,03,14,16,40,14.20
2017,03,14,16,41,14.20
2017,03,14,16,42,14.20
2017,03,14,16,43,14.20
2017,03,14,16,44,14.20
2017,03,14,16,45,14.20
2017,03,14,16,46,14.20
2017,03,14,16,47,14.20
2017,03,14,16,48,14.20
2017,03,14,16,49,14.20
2017,03,14,16,50,14.10
2017,03,14,16,51,14.10
2017,03,14,16,52,14.10
2017,03,14,16,53,14.10
2017,03,14,16,54,14.10
2017,03,14,16,55,14.10
2017,03,14,16,56,14.10
2017,03,14,16,57,14.20
2017,03,14,16,58,14.20
2017,03,14,16,59,14.20
2017,03,14,17,00,14.20
2017,03,14,17,01,14.20
2017,03,14,17,02,14.20
2017,03,14,17,03,14.20
2017,03,14,17,04,14.20
2017,03,14,17,05,14.20
2017,03,14,17,06,14.20
2017,03,14,17,07,14.30
2017,03,14,17,08,14.30
2017,03,14,17,09,14.40
2017,03,14,17,10,14.50
2017,03,14,17,11,14.50
2017,03,14,17,12,14.60
2017,03,14,17,13,14.60
2017,03,14,17,14,14.70
2017,03,14,17,15,14.70
2017,03,14,17,16,14.80
2017,03,14,17,17,14.80
2017,03,14,17,18,14.80
2017,03,14,17,19,14.90
2017,03,14,17,20,14.90
2017,03,14,17,21,15.00
2017,03,14,17,22,15.00
2017,03,14,17,23,14.90
2017,03,14,17,24,14.80
2017,03,14,17,25,14.70
2017,03,14,17,26,14.60
2017,03,14,17,27,14.60
2017,03,14,17,28,14.50
2017,03,14,17,29,14.50
2017,03,14,17,30,14.50
2017,03,14,17,31,14.50
2017,03,14,17,32,14.50
2017,03,14,17,33,14.60
2017,03,14,17,34,14.60
2017,03,14,17,35,14.60
2017,03,14,17,36,14.60
2017,03,14,17,37,14.60
2017,03,14,17,38,14.70
2017,03,14,17,39,14.70
2017,03,14,17,40,14.70
2017,03,14,17,41,14.70
2017,03,14,17,42,14.70
2017,03,14,17,43,14.70
2017,03,14,17,44,14.70
2017,03,14,17,45,14.70
2017,03,14,17,46,14.70
2017,03,14,17,47,14.70
2017,03,14,17,48,14.70
2017,03,14,17,49,14.60
2017,03,14,17,50,14.60
2017,03,14,17,51,14.60
2017,03,14,17,52,14.60
2017,03,14,17,53,14.60
2017,03,14,17,54,14.60
2017,03,14,17,55,14.50
2017,03,14,17,56,14.50
2017,03,14,17,57,14.50
2017,03,14,17,58,14.50
2017,03,14,17,59,14.40
2017,03,14,18,00,14.40
2017,03,14,18,01,14.40
2017,03,14,18,02,14.40
2017,03,14,18,03,14.40
2017,03,14,18,04,14.30
2017,03,14,18,05,14.30
2017,03,14,18,06,14.30
2017,03,14,18,07,14.30
2017,03,14,18,08,14.30
2017,03,14,18,09,14.20
2017,03,14,18,10,14.20
2017,03,14,18,11,14.20
2017,03,14,18,12,14.20
2017,03,14,18,13,14.20
2017,03,14,18,14,14.10
2017,03,14,18,15,14.10
2017,03,14,18,16,14.10
2017,03,14,18,17,14.10
2017,03,14,18,18,14.10
2017,03,14,18,19,14.10
2017,03,14,18,20,14.00
2017,03,14,18,21,14.00
2017,03,14,18,22,14.00
2017,03,14,18,23,14.00
2017,03,14,18,24,13.90
2017,03,14,18,25,14.00
2017,03,14,18,26,13.90
2017,03,14,18,27,13.90
2017,03,14,18,28,13.90
2017,03,14,18,29,13.90
2017,03,14,18,30,13.90
2017,03,14,18,31,13.90
2017,03,14,18,32,13.80
2017,03,14,18,33,13.80
2017,03,14,18,34,13.80
2017,03,14,18,35,13.80
2017,03,14,18,36,13.80
2017,03,14,18,37,13.80
2017,03,14,18,38,13.80
2017,03,14,18,39,13.70
2017,03,14,18,40,13.70
2017,03,14,18,41,13.70
2017,03,14,18,42,13.70
2017,03,14,18,43,13.70
2017,03,14,18,44,13.70
2017,03,14,18,45,13.70
2017,03,14,18,46,13.70
2017,03,14,18,47,13.70
2017,03,14,18,48,13.70
2017,03,14,18,49,13.70
2017,03,14,18,50,13.70
2017,03,14,18,51,13.70
2017,03,14,18,52,13.70
2017,03,14,18,53,13.70
2017,03,14,18,54,13.70
2017,03,14,18,55,13.70
2017,03,14,18,56,13.70
2017,03,14,18,57,13.70
2017,03,14,18,58,13.70
2017,03,14,18,59,13.60
2017,03,14,19,00,13.60
2017,03,14,19,01,13.60
2017,03,14,19,02,13.60
2017,03,14,19,03,13.50
2017,03,14,19,04,13.50
2017,03,14,19,05,13.50
2017,03,14,19,06,13.50
2017,03,14,19,07,13.50
2017,03,14,19,08,13.40
2017,03,14,19,09,13.40
2017,03,14,19,10,13.40
2017,03,14,19,11,13.40
2017,03,14,19,12,13.40
2017,03,14,19,13,13.30
2017,03,14,19,14,13.30
2017,03,14,19,15,13.30
2017,03,14,19,16,13.30
2017,03,14,19,17,13.20
2017,03,14,19,18,13.20
2017,03,14,19,19,13.20
2017,03,14,19,20,13.20
2017,03,14,19,21,13.20
2017,03,14,19,22,13.10
2017,03,14,19,23,13.10
2017,03,14,19,24,13.10
2017,03,14,19,25,13.10
2017,03,14,19,26,13.10
2017,03,14,19,27,13.10
2017,03,14,19,28,13.10
2017,03,14,19,29,13.00
2017,03,14,19,30,13.00
2017,03,14,19,31,13.00
2017,03,14,19,32,13.00
2017,03,14,19,33,12.90
2017,03,14,19,34,12.90
2017,03,14,19,35,12.90
2017,03,14,19,36,12.90
2017,03,14,19,37,12.80
2017,03,14,19,38,12.80
2017,03,14,19,39,12.80
2017,03,14,19,40,12.70
2017,03,14,19,41,12.70
2017,03,14,19,42,12.70
2017,03,14,19,43,12.70
2017,03,14,19,44,12.70
2017,03,14,19,45,12.70
2017,03,14,19,46,12.70
2017,03,14,19,47,12.70
2017,03,14,19,48,12.70
2017,03,14,19,49,12.70
2017,03,14,19,50,12.70
2017,03,14,19,51,12.70
2017,03,14,19,52,12.70
2017,03,14,19,53,12.70
2017,03,14,19,54,12.70
2017,03,14,19,55,12.70
2017,03,14,19,56,12.70
2017,03,14,19,57,12.80
2017,03,14,19,58,12.80
2017,03,14,19,59,12.80
2017,03,14,20,00,12.80
2017,03,14,20,01,12.70
2017,03,14,20,02,12.70
2017,03,14,20,03,12.70
2017,03,14,20,04,12.70
2017,03,14,20,05,12.70
2017,03,14,20,06,12.70
2017,03,14,20,07,12.70
2017,03,14,20,08,12.60
2017,03,14,20,09,12.60
2017,03,14,20,10,12.60
2017,03,14,20,11,12.60
2017,03,14,20,12,12.60
2017,03,14,20,13,12.60
2017,03,14,20,14,12.60
2017,03,14,20,15,12.50
2017,03,14,20,16,12.50
2017,03,14,20,17,12.50
2017,03,14,20,18,12.40
2017,03,14,20,19,12.40
2017,03,14,20,20,12.40
2017,03,14,20,21,12.40
2017,03,14,20,22,12.40
2017,03,14,20,23,12.40
2017,03,14,20,24,12.40
2017,03,14,20,25,12.40
2017,03,14,20,26,12.30
2017,03,14,20,27,12.30
2017,03,14,20,28,12.30
2017,03,14,20,29,12.30
2017,03,14,20,30,12.30
2017,03,14,20,31,12.30
2017,03,14,20,32,12.30
2017,03,14,20,33,12.30
2017,03,14,20,34,12.30
2017,03,14,20,35,12.30
2017,03,14,20,36,12.30
2017,03,14,20,37,12.30
2017,03,14,20,38,12.20
2017,03,14,20,39,12.20
2017,03,14,20,40,12.20
2017,03,14,20,41,12.20
2017,03,14,20,42,12.20
2017,03,14,20,43,12.20
2017,03,14,20,44,12.20
2017,03,14,20,45,12.20
2017,03,14,20,46,12.10
2017,03,14,20,47,12.10
2017,03,14,20,48,12.10
2017,03,14,20,49,12.10
2017,03,14,20,50,12.20
2017,03,14,20,51,12.20
2017,03,14,20,52,12.20
2017,03,14,20,53,12.20
2017,03,14,20,54,12.20
2017,03,14,20,55,12.10
2017,03,14,20,56,12.10
2017,03,14,20,57,12.10
2017,03,14,20,58,12.10
2017,03,14,20,59,12.10
2017,03,14,21,00,12.10
2017,03,14,21,01,12.20
2017,03,14,21,02,12.20
2017,03,14,21,03,12.20
2017,03,14,21,04,12.20
2017,03,14,21,05,12.20
2017,03,14,21,06,12.20
2017,03,14,21,07,12.20
2017,03,14,21,08,12.20
2017,03,14,21,09,12.20
2017,03,14,21,10,12.20
2017,03,14,21,11,12.10
2017,03,14,21,12,12.10
2017,03,14,21,13,12.10
2017,03,14,21,14,12.10
2017,03,14,21,15,12.10
2017,03,14,21,16,12.10
2017,03,14,21,17,12.00
2017,03,14,21,18,12.00
2017,03,14,21,19,12.00
2017,03,14,21,20,12.10
2017,03,14,21,21,12.10
2017,03,14,21,22,12.10
2017,03,14,21,23,12.10
2017,03,14,21,24,12.10
2017,03,14,21,25,12.10
2017,03,14,21,26,12.10
2017,03,14,21,27,12.10
2017,03,14,21,28,12.10
2017,03,14,21,29,12.00
2017,03,14,21,30,12.00
2017,03,14,21,31,12.00
2017,03,14,21,32,12.00
2017,03,14,21,33,12.00
2017,03,14,21,34,11.90
2017,03,14,21,35,11.90
2017,03,14,21,36,11.90
2017,03,14,21,37,11.90
2017,03,14,21,38,11.90
2017,03,14,21,39,11.90
2017,03,14,21,40,11.90
2017,03,14,21,41,11.80
2017,03,14,21,42,11.80
2017,03,14,21,43,11.80
2017,03,14,21,44,11.70
2017,03,14,21,45,11.70
2017,03,14,21,46,11.70
2017,03,14,21,47,11.60
2017,03,14,21,48,11.60
2017,03,14,21,49,11.50
2017,03,14,21,50,11.50
2017,03,14,21,51,11.40
2017,03,14,21,52,11.40
2017,03,14,21,53,11.40
2017,03,14,21,54,11.40
2017,03,14,21,55,11.30
2017,03,14,21,56,11.30
2017,03,14,21,57,11.30
2017,03,14,21,58,11.30
2017,03,14,21,59,11.30
2017,03,14,22,00,11.30
2017,03,14,22,01,11.20
2017,03,14,22,02,11.20
2017,03,14,22,03,11.20
2017,03,14,22,04,11.20
2017,03,14,22,05,11.20
2017,03,14,22,06,11.20
2017,03,14,22,07,11.10
2017,03,14,22,08,11.10
2017,03,14,22,09,11.10
2017,03,14,22,10,11.10
2017,03,14,22,11,11.00
2017,03,14,22,12,10.90
2017,03,14,22,13,10.90
2017,03,14,22,14,10.90
2017,03,14,22,15,10.80
2017,03,14,22,16,10.80
2017,03,14,22,17,10.70
2017,03,14,22,18,10.60
2017,03,14,22,19,10.60
2017,03,14,22,20,10.60
2017,03,14,22,21,10.60
2017,03,14,22,22,10.50
2017,03,14,22,23,10.50
2017,03,14,22,24,10.40
2017,03,14,22,25,10.40
2017,03,14,22,26,10.40
2017,03,14,22,27,10.40
2017,03,14,22,28,10.40
2017,03,14,22,29,10.40
2017,03,14,22,30,10.40
2017,03,14,22,31,10.40
2017,03,14,22,32,10.40
2017,03,14,22,33,10.40
2017,03,14,22,34,10.40
2017,03,14,22,35,10.40
2017,03,14,22,36,10.40
2017,03,14,22,37,10.40
2017,03,14,22,38,10.40
2017,03,14,22,39,10.40
2017,03,14,22,40,10.30
2017,03,14,22,41,10.30
2017,03,14,22,42,10.20
2017,03,14,22,43,10.20
2017,03,14,22,44,10.10
2017,03,14,22,45,10.10
2017,03,14,22,46,10.00
2017,03,14,22,47,10.00
2017,03,14,22,48,9.90
2017,03,14,22,49,9.90
2017,03,14,22,50,9.80
2017,03,14,22,51,9.80
2017,03,14,22,52,9.80
2017,03,14,22,53,9.70
2017,03,14,22,54,9.70
2017,03,14,22,55,9.70
2017,03,14,22,56,9.60
2017,03,14,22,57,9.60
2017,03,14,22,58,9.50
2017,03,14,22,59,9.50
2017,03,14,23,00,9.40
2017,03,14,23,01,9.40
2017,03,14,23,02,9.40
2017,03,14,23,03,9.30
2017,03,14,23,04,9.30
2017,03,14,23,05,9.30
2017,03,14,23,06,9.20
2017,03,14,23,07,9.20
2017,03,14,23,08,9.10
2017,03,14,23,09,9.10
2017,03,14,23,10,9.00
2017,03,14,23,11,8.90
2017,03,14,23,12,8.90
2017,03,14,23,13,8.80
2017,03,14,23,14,8.80
2017,03,14,23,15,8.80
2017,03,14,23,16,8.80
2017,03,14,23,17,8.80
2017,03,14,23,18,8.80
2017,03,14,23,19,8.80
2017,03,14,23,20,8.80
2017,03,14,23,21,8.80
2017,03,14,23,22,8.80
2017,03,14,23,23,8.80
2017,03,14,23,24,8.90
2017,03,14,23,25,9.00
2017,03,14,23,26,9.00
2017,03,14,23,27,9.10
2017,03,14,23,28,9.10
2017,03,14,23,29,9.10
2017,03,14,23,30,9.10
2017,03,14,23,31,9.20
2017,03,14,23,32,9.20
2017,03,14,23,33,9.20
2017,03,14,23,34,9.20
2017,03,14,23,35,9.20
2017,03,14,23,36,9.20
2017,03,14,23,37,9.20
2017,03,14,23,38,9.20
2017,03,14,23,39,9.20
2017,03,14,23,40,9.10
2017,03,14,23,41,9.10
2017,03,14,23,42,9.10
2017,03,14,23,43,9.00
2017,03,14,23,44,9.00
2017,03,14,23,45,8.90
2017,03,14,23,46,8.90
2017,03,14,23,47,8.90
2017,03,14,23,48,8.90
2017,03,14,23,49,8.90
2017,03,14,23,50,8.90
2017,03,14,23,51,8.90
2017,03,14,23,52,8.90
2017,03,14,23,53,8.90
2017,03,14,23,54,8.90
2017,03,14,23,55,9.00
2017,03,14,23,56,9.00
2017,03,14,23,57,9.00
2017,03,14,23,58,8.90
2017,03,14,23,59,8.90
